Flag for Germany Weather past 2 weeks in Bad Vilbel, Hesse, Germany

Now
47 °F

Overcast.


Feels Like: 45 °F
Forecast: 37 / 45 °F
Wind: 5 mph from South

Location: Frankfurt / M-Flughafen

Current Time: Mar 1, 2015 at 8:57:17 PM

Latest Report: Mar 1, 2015 at 8:00 PM


Visibility: 25 mi

Pressure: 29.71 "Hg

Humidity: 86%

Dew point: 43 °F

Location of Bad VilbelLocation

Historic Weather in Bad Vilbel — Graph

°F

Bad Vilbel temperature yesterday

Maximum temperature yesterday: 45 °F (at 2:00 PM)
Minimum temperature yesterday: 29 °F (at 7:00 AM)
Average temperature yesterday: 38 °F

Past Weeks' High & Low Weather Summary

 TemperatureHumidityPressure
High52 °F (Feb 20, 5:00 PM)100% (Feb 23, 12:00 PM)30.77 "Hg (Feb 23, 12:00 PM)
Low25 °F (Feb 15, 5:00 AM)51% (Feb 21, 1:00 AM)29.47 "Hg (Feb 21, 6:00 AM)
Average38 °F82%30.03 "Hg
* Reported Feb 14 8:00 PM — Mar 1 8:00 PM, Bad Vilbel, Weather by CustomWeather, © 2015

Note: Actual official high and low records may vary slightly from our data, if they occured in-between our weather recording intervals... More about our weather records

Advertising

Bad Vilbel weather history for previous 24 hours

 ConditionsComfort  
Time TempWeatherWind HumidityBarometerVisibility
8:00 PM
Sun, Mar 1
47 °FOvercast.5 mph86%29.71 "Hg25 mi
7:00 PM49 °FPassing clouds.8 mph77%29.71 "Hg25 mi
6:00 PM49 °FScattered clouds.8 mph78%29.70 "Hg28 mi
5:00 PM50 °FPartly sunny.7 mph79%29.70 "Hg31 mi
3:00 PM49 °FOvercast.9 mph84%29.71 "Hg28 mi
2:00 PM49 °FOvercast.9 mph82%29.72 "Hg25 mi
1:00 PM47 °FLow clouds.7 mph88%29.74 "Hg19 mi
12:00 PM43 °FRain. Low clouds.7 mph97%29.75 "Hg5 mi
11:00 AM40 °FRain. Low clouds.7 mph97%29.76 "Hg6 mi
10:00 AM39 °FLight rain. Low clouds.7 mph95%29.75 "Hg7 mi
9:00 AM38 °FLow clouds.6 mph95%29.76 "Hg10 mi
8:00 AM37 °FLight rain. Low clouds.7 mph96%29.76 "Hg5 mi
7:00 AM37 °FRain. Low clouds.6 mph96%29.78 "Hg4 mi
6:00 AM36 °FRain. Overcast.6 mph93%29.79 "Hg6 mi
5:00 AM37 °FLight rain. Overcast.7 mph89%29.82 "Hg6 mi
3:00 AM38 °FOvercast.6 mph76%29.87 "Hg16 mi
2:00 AM37 °FOvercast.5 mph79%29.90 "Hg16 mi
1:00 AM37 °FOvercast.5 mph75%29.93 "Hg16 mi
12:00 AM36 °FPassing clouds.3 mph74%29.96 "Hg16 mi
11:00 PM
Sat, Feb 28
36 °FPassing clouds.3 mph72%29.98 "Hg22 mi
9:00 PM36 °FPassing clouds.2 mph72%30.03 "Hg25 mi
8:00 PM35 °FClear.2 mph83%30.04 "Hg25 mi
Weather by CustomWeather, © 2015

See weather overviewHow to use our weather pages